Location: Finkenwalde
(53.3770°N, 14.6418°E)
Time: 10:21:11
(UTC+00:00)

PAYLOAD B - Pass Details

Date: 05 February 2023
Orbit: 849 x 871 km, 99.1° (Epoch: 19 March)

Event Time Altitude Azimuth Distance (km) Brightness Sun altitude
Rises 16:48:37 0° 145° (SE) 3,417 7.1 -8.8°
Reaches altitude 10° 16:51:01 10° 140° (SE) 2,482 6.4 -9.1°
Maximum altitude 16:56:21 53° 65° (ENE) 1,043 4.3 -9.9°
Drops below altitude 10° 17:01:42 10° 350° (N) 2,490 6.6 -10.7°
Sets 17:04:07 0° 346° (NNW) 3,429 7.4 -11.0°
